| time (UTC) | temp F | wind direction | speed MPH | gust MPH | rain 1hr in | rain 24hr in | rain mn in | humidity % | barometer mb |
| 20260503032702 | 47 | 151 | 2.0 | 7.0 | 0.00 | 0.00 | 0.00 | 57 | 1017.2 |
| 20260503032200 | 48 | 136 | 4.0 | 7.0 | 0.00 | 0.00 | 0.00 | 57 | 1017.5 |
| 20260503031657 | 48 | 170 | 5.0 | 9.0 | 0.00 | 0.00 | 0.00 | 57 | 1017.3 |
| 20260503031155 | 48 | 138 | 3.0 | 7.0 | 0.00 | 0.00 | 0.00 | 57 | 1017.2 |
| 20260503030651 | 48 | 137 | 4.0 | 6.0 | 0.00 | 0.00 | 0.00 | 56 | 1017.3 |
| 20260503030148 | 48 | 118 | 3.0 | 9.0 | 0.00 | 0.00 | 0.00 | 56 | 1017.3 |
| 20260503025644 | 48 | 169 | 3.0 | 7.0 | 0.00 | 0.00 | 0.00 | 56 | 1017.4 |
| 20260503025143 | 48 | 137 | 4.0 | 5.0 | 0.00 | 0.00 | 0.00 | 58 | 1017.4 |
| 20260503024638 | 48 | 175 | 3.0 | 5.0 | 0.00 | 0.00 | 0.00 | 56 | 1017.5 |
| 20260503024136 | 48 | 136 | 3.0 | 5.0 | 0.00 | 0.00 | 0.00 | 56 | 1017.4 |
| 20260503023633 | 48 | 123 | 3.0 | 7.0 | 0.00 | 0.00 | 0.00 | 56 | 1017.5 |
| 20260503023130 | 48 | 131 | 2.0 | 7.0 | 0.00 | 0.00 | 0.00 | 57 | 1017.5 |
| 20260503022625 | 48 | 136 | 3.0 | 6.0 | 0.00 | 0.00 | 0.00 | 57 | 1017.4 |
| 20260503022120 | 48 | 149 | 5.0 | 7.0 | 0.00 | 0.00 | 0.00 | 57 | 1017.6 |
| 20260503021618 | 48 | 112 | 2.0 | 6.0 | 0.00 | 0.00 | 0.00 | 55 | 1017.4 |
| 20260503021114 | 48 | 136 | 3.0 | 6.0 | 0.00 | 0.00 | 0.00 | 55 | 1017.6 |
| 20260503020611 | 49 | 152 | 3.0 | 6.0 | 0.00 | 0.00 | 0.00 | 56 | 1017.5 |
| 20260503020109 | 49 | 135 | 2.0 | 7.0 | 0.00 | 0.00 | 0.00 | 54 | 1017.4 |
| 20260503015605 | 49 | 148 | 5.0 | 8.0 | 0.00 | 0.00 | 0.00 | 55 | 1017.7 |
| 20260503015102 | 49 | 153 | 3.0 | 6.0 | 0.00 | 0.00 | 0.00 | 53 | 1017.3 |
| 20260503014558 | 49 | 130 | 4.0 | 7.0 | 0.00 | 0.00 | 0.00 | 53 | 1017.2 |
| 20260503014056 | 49 | 143 | 3.0 | 5.0 | 0.00 | 0.00 | 0.00 | 54 | 1017.4 |
| 20260503013553 | 49 | 134 | 2.0 | 5.0 | 0.00 | 0.00 | 0.00 | 53 | 1017.1 |
| 20260503013051 | 50 | 139 | 3.0 | 6.0 | 0.00 | 0.00 | 0.00 | 53 | 1017.3 |
| 20260503012548 | 50 | 139 | 2.0 | 5.0 | 0.00 | 0.00 | 0.00 | 52 | 1017.2 |
| 20260503012044 | 50 | 130 | 3.0 | 5.0 | 0.00 | 0.00 | 0.00 | 51 | 1017.4 |
| 20260503011541 | 51 | 129 | 3.0 | 5.0 | 0.00 | 0.00 | 0.00 | 53 | 1017.1 |
| 20260503011038 | 51 | 151 | 3.0 | 6.0 | 0.00 | 0.00 | 0.00 | 49 | 1017.4 |
| 20260503010534 | 51 | 142 | 5.0 | 6.0 | 0.00 | 0.00 | 0.00 | 49 | 1017.0 |
| 20260503010032 | 51 | 146 | 4.0 | 6.0 | 0.00 | 0.00 | 0.00 | 48 | 1017.1 |
| 20260503005529 | 52 | 132 | 5.0 | 6.0 | 0.00 | 0.00 | 0.00 | 48 | 1017.3 |
| 20260503005026 | 52 | 135 | 4.0 | 7.0 | 0.00 | 0.00 | 0.00 | 48 | 1017.5 |
| 20260503004522 | 53 | 180 | 4.0 | 7.0 | 0.00 | 0.00 | 0.00 | 46 | 1017.1 |
| 20260503004021 | 53 | 185 | 2.0 | 8.0 | 0.00 | 0.00 | 0.00 | 47 | 1017.2 |
| 20260503003517 | 53 | 170 | 5.0 | 6.0 | 0.00 | 0.00 | 0.00 | 47 | 1017.5 |
| 20260503003014 | 53 | 163 | 3.0 | 6.0 | 0.00 | 0.00 | 0.00 | 45 | 1017.3 |
| 20260503002511 | 54 | 157 | 2.0 | 9.0 | 0.00 | 0.00 | 0.00 | 46 | 1017.3 |
| 20260503002008 | 54 | 179 | 4.0 | 8.0 | 0.00 | 0.00 | 0.00 | 44 | 1017.5 |
| 20260503001504 | 55 | 166 | 4.0 | 6.0 | 0.00 | 0.00 | 0.00 | 44 | 1017.6 |
| 20260503001002 | 55 | 201 | 3.0 | 7.0 | 0.00 | 0.00 | 0.00 | 44 | 1017.5 |
| 20260503000459 | 55 | 207 | 1.0 | 4.0 | 0.00 | 0.00 | 0.00 | 44 | 1017.5 |
| 20260502235956 | 55 | 166 | 4.0 | 8.0 | 0.00 | 0.00 | 0.00 | 43 | 1017.3 |
| 20260502235452 | 55 | 204 | 2.0 | 9.0 | 0.00 | 0.00 | 0.00 | 42 | 1017.3 |
| 20260502234950 | 55 | 142 | 2.0 | 4.0 | 0.00 | 0.00 | 0.00 | 42 | 1017.5 |
| 20260502234446 | 55 | 232 | 5.0 | 14.0 | 0.00 | 0.00 | 0.00 | 42 | 1017.5 |
| 20260502233944 | 56 | 185 | 11.0 | 14.0 | 0.00 | 0.00 | 0.00 | 41 | 1017.8 |
| 20260502233439 | 56 | 200 | 6.0 | 11.0 | 0.00 | 0.00 | 0.00 | 41 | 1017.8 |
| 20260502232936 | 56 | 231 | 5.0 | 8.0 | 0.00 | 0.00 | 0.00 | 40 | 1017.6 |
| 20260502232432 | 56 | 185 | 3.0 | 9.0 | 0.00 | 0.00 | 0.00 | 41 | 1017.5 |
| 20260502231930 | 56 | 205 | 6.0 | 11.0 | 0.00 | 0.00 | 0.00 | 40 | 1017.9 |
| 20260502231427 | 57 | 198 | 5.0 | 11.0 | 0.00 | 0.00 | 0.00 | 40 | 1017.8 |
| 20260502230925 | 56 | 195 | 3.0 | 12.0 | 0.00 | 0.00 | 0.00 | 42 | 1017.8 |
| 20260502230423 | 56 | 199 | 5.0 | 19.0 | 0.00 | 0.00 | 0.00 | 41 | 1018.0 |
| 20260502225921 | 57 | 132 | 5.0 | 10.0 | 0.00 | 0.00 | 0.00 | 42 | 1017.8 |
| 20260502225416 | 55 | 165 | 5.0 | 10.0 | 0.00 | 0.00 | 0.00 | 43 | 1017.9 |
| 20260502224913 | 55 | 299 | 5.0 | 8.0 | 0.00 | 0.00 | 0.00 | 42 | 1017.9 |
| 20260502224409 | 55 | 215 | 4.0 | 13.0 | 0.00 | 0.00 | 0.00 | 43 | 1017.9 |
| 20260502223906 | 56 | 152 | 5.0 | 11.0 | 0.00 | 0.00 | 0.00 | 42 | 1017.7 |
| 20260502223404 | 56 | 145 | 5.0 | 9.0 | 0.00 | 0.00 | 0.00 | 44 | 1018.1 |
| 20260502222902 | 55 | 70 | 0.0 | 8.0 | 0.00 | 0.00 | 0.00 | 44 | 1018.2 |
| 20260502222359 | 55 | 6 | 5.0 | 8.0 | 0.00 | 0.00 | 0.00 | 56 | 1018.0 |
| 20260502221854 | 53 | 135 | 3.0 | 6.0 | 0.00 | 0.00 | 0.00 | 57 | 1018.2 |
| 20260502221352 | 52 | 100 | 2.0 | 9.0 | 0.00 | 0.00 | 0.00 | 58 | 1018.2 |
| 20260502220849 | 52 | 97 | 3.0 | 8.0 | 0.00 | 0.00 | 0.00 | 58 | 1018.0 |
| 20260502220344 | 52 | 34 | 3.0 | 6.0 | 0.00 | 0.00 | 0.00 | 57 | 1018.3 |
| 20260502215841 | 52 | 127 | 3.0 | 6.0 | 0.00 | 0.00 | 0.00 | 56 | 1018.2 |
| 20260502215339 | 53 | 75 | 2.0 | 8.0 | 0.00 | 0.00 | 0.00 | 54 | 1018.2 |
| 20260502214835 | 51 | 56 | 2.0 | 9.0 | 0.00 | 0.00 | 0.00 | 58 | 1018.2 |
| 20260502214332 | 52 | 81 | 10.0 | 11.0 | 0.00 | 0.00 | 0.00 | 56 | 1018.2 |
| 20260502213829 | 51 | 97 | 3.0 | 6.0 | 0.00 | 0.00 | 0.00 | 57 | 1018.3 |
| 20260502213326 | 52 | 75 | 4.0 | 9.0 | 0.00 | 0.00 | 0.00 | 56 | 1018.1 |
| 20260502212825 | 51 | 92 | 3.0 | 5.0 | 0.00 | 0.00 | 0.00 | 55 | 1018.2 |
| 20260502212323 | 51 | 116 | 3.0 | 10.0 | 0.00 | 0.00 | 0.00 | 55 | 1018.4 |
| 20260502211820 | 50 | 142 | 7.0 | 13.0 | 0.00 | 0.00 | 0.00 | 56 | 1018.7 |
| 20260502211315 | 52 | 80 | 5.0 | 9.0 | 0.00 | 0.00 | 0.00 | 57 | 1018.4 |
| 20260502210813 | 53 | 30 | 9.0 | 9.0 | 0.00 | 0.00 | 0.00 | 53 | 1018.5 |
| 20260502210310 | 52 | 80 | 3.0 | 13.0 | 0.00 | 0.00 | 0.00 | 55 | 1018.7 |
| 20260502205808 | 51 | 164 | 2.0 | 9.0 | 0.00 | 0.00 | 0.00 | 58 | 1018.7 |
| 20260502205258 | 51 | 84 | 3.0 | 13.0 | 0.00 | 0.00 | 0.00 | 57 | 1018.7 |
| 20260502204755 | 52 | 91 | 4.0 | 11.0 | 0.00 | 0.00 | 0.00 | 57 | 1018.6 |
| 20260502204252 | 53 | 89 | 8.0 | 14.0 | 0.00 | 0.00 | 0.00 | 53 | 1018.8 |
| 20260502203750 | 53 | 47 | 8.0 | 15.0 | 0.00 | 0.00 | 0.00 | 52 | 1018.9 |
| 20260502203248 | 53 | 336 | 4.0 | 11.0 | 0.00 | 0.00 | 0.00 | 54 | 1018.9 |
| 20260502202742 | 53 | 305 | 2.0 | 6.0 | 0.00 | 0.00 | 0.00 | 56 | 1019.0 |
| 20260502202240 | 53 | 70 | 2.0 | 7.0 | 0.00 | 0.00 | 0.00 | 54 | 1019.1 |
| 20260502201738 | 53 | 144 | 4.0 | 6.0 | 0.00 | 0.00 | 0.00 | 54 | 1019.0 |
| 20260502201234 | 51 | 115 | 5.0 | 9.0 | 0.00 | 0.00 | 0.00 | 56 | 1019.1 |
| 20260502200730 | 53 | 34 | 4.0 | 8.0 | 0.00 | 0.00 | 0.00 | 47 | 1019.2 |
| 20260502200226 | 53 | 338 | 3.0 | 9.0 | 0.00 | 0.00 | 0.00 | 41 | 1019.4 |
| 20260502195725 | 53 | 0 | 5.0 | 7.0 | 0.00 | 0.00 | 0.00 | 42 | 1019.3 |
| 20260502195221 | 53 | 147 | 5.0 | 9.0 | 0.00 | 0.00 | 0.00 | 41 | 1019.3 |
| 20260502194718 | 53 | 214 | 7.0 | 17.0 | 0.00 | 0.00 | 0.00 | 42 | 1019.1 |
| 20260502194215 | 53 | 201 | 5.0 | 15.0 | 0.00 | 0.00 | 0.00 | 42 | 1019.3 |
| 20260502193710 | 54 | 183 | 6.0 | 13.0 | 0.00 | 0.00 | 0.00 | 41 | 1019.4 |
| 20260502193209 | 55 | 185 | 4.0 | 14.0 | 0.00 | 0.00 | 0.00 | 41 | 1019.5 |
| 20260502192703 | 55 | 195 | 10.0 | 15.0 | 0.00 | 0.00 | 0.00 | 40 | 1019.6 |
| 20260502192201 | 55 | 258 | 8.0 | 11.0 | 0.00 | 0.00 | 0.00 | 40 | 1019.7 |
| 20260502191657 | 55 | 283 | 4.0 | 12.0 | 0.00 | 0.00 | 0.00 | 40 | 1019.7 |
| 20260502191155 | 54 | 302 | 4.0 | 9.0 | 0.00 | 0.00 | 0.00 | 43 | 1019.9 |
| 20260502190652 | 53 | 197 | 4.0 | 11.0 | 0.00 | 0.00 | 0.00 | 43 | 1020.0 |
| 20260502190150 | 52 | 346 | 2.0 | 8.0 | 0.00 | 0.00 | 0.00 | 41 | 1019.9 |
| 20260502185644 | 52 | 255 | 3.0 | 12.0 | 0.00 | 0.00 | 0.00 | 44 | 1020.0 |
| 20260502185141 | 52 | 272 | 12.0 | 12.0 | 0.00 | 0.00 | 0.00 | 43 | 1020.2 |
| 20260502184638 | 51 | 283 | 9.0 | 13.0 | 0.00 | 0.00 | 0.00 | 43 | 1020.3 |
| 20260502184133 | 52 | 259 | 10.0 | 11.0 | 0.00 | 0.00 | 0.00 | 44 | 1020.4 |
| 20260502183630 | 52 | 248 | 3.0 | 6.0 | 0.00 | 0.00 | 0.00 | 43 | 1020.3 |
| 20260502183126 | 52 | 216 | 5.0 | 8.0 | 0.00 | 0.00 | 0.00 | 43 | 1020.2 |
| 20260502182621 | 53 | 344 | 3.0 | 10.0 | 0.00 | 0.00 | 0.00 | 45 | 1020.4 |
| 20260502182117 | 52 | 310 | 5.0 | 10.0 | 0.00 | 0.00 | 0.00 | 43 | 1020.4 |
| 20260502181615 | 52 | 332 | 2.0 | 12.0 | 0.00 | 0.00 | 0.00 | 43 | 1020.2 |
| 20260502181114 | 52 | 223 | 7.0 | 13.0 | 0.00 | 0.00 | 0.00 | 44 | 1020.5 |
| 20260502180610 | 51 | 351 | 0.0 | 12.0 | 0.00 | 0.00 | 0.00 | 43 | 1020.4 |
| 20260502180107 | 51 | 341 | 8.0 | 11.0 | 0.00 | 0.00 | 0.00 | 44 | 1020.5 |
| 20260502164013 | 51 | 202 | 0.0 | 7.0 | 0.00 | 0.00 | 0.00 | 51 | 1021.5 |
| 20260502163509 | 50 | 36 | 3.0 | 11.0 | 0.00 | 0.00 | 0.00 | 49 | 1021.5 |
| 20260502163006 | 49 | 184 | 4.0 | 15.0 | 0.00 | 0.00 | 0.00 | 47 | 1021.5 |
| 20260502162503 | 49 | 214 | 4.0 | 13.0 | 0.00 | 0.00 | 0.00 | 54 | 1021.4 |
| 20260502162000 | 50 | 194 | 6.0 | 11.0 | 0.00 | 0.00 | 0.00 | 49 | 1021.7 |
| 20260502161456 | 49 | 290 | 3.0 | 10.0 | 0.00 | 0.00 | 0.00 | 48 | 1021.6 |
| 20260502160954 | 48 | 220 | 13.0 | 14.0 | 0.00 | 0.00 | 0.00 | 51 | 1021.7 |
| 20260502160447 | 48 | 201 | 3.0 | 9.0 | 0.00 | 0.00 | 0.00 | 52 | 1021.7 |
| 20260502151936 | 50 | 248 | 4.0 | 8.0 | 0.00 | 0.00 | 0.00 | 49 | 1021.9 |
| 20260502151432 | 48 | 110 | 3.0 | 5.0 | 0.00 | 0.00 | 0.00 | 53 | 1021.7 |
| 20260502150930 | 47 | 206 | 4.0 | 8.0 | 0.00 | 0.00 | 0.00 | 52 | 1021.9 |
| 20260502150426 | 46 | 194 | 7.0 | 13.0 | 0.00 | 0.00 | 0.00 | 51 | 1021.9 |
| 20260502130312 | 41 | 179 | 5.0 | 6.0 | 0.00 | 0.00 | 0.00 | 80 | 1022.1 |
| 20260502123757 | 39 | 190 | 3.0 | 3.0 | 0.00 | 0.00 | 0.00 | 86 | 1022.1 |
| 20260502123254 | 38 | 216 | 3.0 | 6.0 | 0.00 | 0.00 | 0.00 | 87 | 1022.1 |
| 20260502122751 | 37 | 215 | 2.0 | 6.0 | 0.00 | 0.00 | 0.00 | 87 | 1021.9 |
| 20260502122247 | 37 | 184 | 0.0 | 8.0 | 0.00 | 0.00 | 0.00 | 88 | 1021.9 |
| 20260502121746 | 37 | 199 | 2.0 | 4.0 | 0.00 | 0.00 | 0.00 | 88 | 1022.0 |
| 20260502121243 | 36 | 201 | 2.0 | 5.0 | 0.00 | 0.00 | 0.00 | 90 | 1021.9 |
| 20260502120739 | 36 | 210 | 2.0 | 4.0 | 0.00 | 0.00 | 0.00 | 91 | 1021.8 |
| 20260502120236 | 35 | 220 | 2.0 | 3.0 | 0.00 | 0.00 | 0.00 | 92 | 1021.7 |
| 20260502115734 | 35 | 136 | 2.0 | 3.0 | 0.00 | 0.00 | 0.00 | 93 | 1021.8 |
| 20260502115231 | 34 | 118 | 1.0 | 5.0 | 0.00 | 0.00 | 0.00 | 94 | 1021.7 |
| 20260502114727 | 34 | 111 | 1.0 | 3.0 | 0.00 | 0.00 | 0.00 | 96 | 1021.6 |
| 20260502114224 | 33 | 164 | 2.0 | 4.0 | 0.00 | 0.00 | 0.00 | 98 | 1021.5 |
| 20260502113721 | 32 | 132 | 1.0 | 4.0 | 0.00 | 0.00 | 0.00 | 99 | 1021.5 |
| 20260502113219 | 32 | 132 | 1.0 | 3.0 | 0.00 | 0.00 | 0.00 | 99 | 1021.4 |
| 20260502112717 | 31 | 158 | 2.0 | 3.0 | 0.00 | 0.00 | 0.00 | 99 | 1021.3 |
| 20260502112214 | 30 | 212 | 0.0 | 3.0 | 0.00 | 0.00 | 0.00 | 99 | 1021.3 |
| 20260502111711 | 29 | 116 | 1.0 | 3.0 | 0.00 | 0.00 | 0.00 | 99 | 1021.5 |
| 20260502111209 | 30 | 87 | 1.0 | 2.0 | 0.00 | 0.00 | 0.00 | 99 | 1021.3 |
| 20260502110706 | 30 | 102 | 0.0 | 3.0 | 0.00 | 0.00 | 0.00 | 99 | 1021.3 |
| 20260502110203 | 30 | 127 | 1.0 | 2.0 | 0.00 | 0.00 | 0.00 | 99 | 1021.2 |
| 20260502105701 | 30 | 113 | 0.0 | 2.0 | 0.00 | 0.00 | 0.00 | 99 | 1021.4 |
| 20260502105157 | 30 | 130 | 2.0 | 3.0 | 0.00 | 0.00 | 0.00 | 99 | 1021.3 |
| 20260502104655 | 30 | 107 | 1.0 | 3.0 | 0.00 | 0.00 | 0.00 | 99 | 1021.4 |
| 20260502104152 | 30 | 132 | 2.0 | 3.0 | 0.00 | 0.00 | 0.00 | 99 | 1021.4 |
| 20260502103650 | 29 | 96 | 0.0 | 3.0 | 0.00 | 0.00 | 0.00 | 99 | 1021.4 |
| 20260502103148 | 29 | 113 | 2.0 | 3.0 | 0.00 | 0.00 | 0.00 | 99 | 1021.4 |
| 20260502102644 | 29 | 101 | 0.0 | 3.0 | 0.00 | 0.00 | 0.00 | 99 | 1021.5 |
| 20260502102141 | 29 | 131 | 1.0 | 3.0 | 0.00 | 0.00 | 0.00 | 99 | 1021.3 |
| 20260502101639 | 29 | 132 | 1.0 | 3.0 | 0.00 | 0.00 | 0.00 | 99 | 1021.2 |
| 20260502101137 | 29 | 137 | 2.0 | 3.0 | 0.00 | 0.00 | 0.00 | 99 | 1021.3 |
| 20260502100635 | 30 | 116 | 2.0 | 3.0 | 0.00 | 0.00 | 0.00 | 99 | 1021.4 |
| 20260502100133 | 30 | 115 | 0.0 | 3.0 | 0.00 | 0.00 | 0.00 | 99 | 1021.4 |
| 20260502091107 | 30 | 126 | 0.0 | 2.0 | 0.00 | 0.00 | 0.00 | 99 | 1021.1 |
| 20260502090604 | 29 | 126 | 0.0 | 1.0 | 0.00 | 0.00 | 0.00 | 99 | 1021.5 |
| 20260502071453 | 29 | 122 | 2.0 | 2.0 | 0.00 | 0.00 | 0.00 | 98 | 1021.3 |
| 20260502070950 | 29 | 94 | 1.0 | 2.0 | 0.00 | 0.00 | 0.00 | 98 | 1021.3 |
| 20260502070448 | 29 | 125 | 1.0 | 3.0 | 0.00 | 0.00 | 0.00 | 98 | 1021.4 |
| 20260502065947 | 30 | 122 | 0.0 | 3.0 | 0.00 | 0.00 | 0.00 | 98 | 1021.4 |
| 20260502065445 | 30 | 124 | 2.0 | 3.0 | 0.00 | 0.00 | 0.00 | 98 | 1021.3 |
| 20260502064942 | 29 | 111 | 2.0 | 3.0 | 0.00 | 0.00 | 0.00 | 98 | 1021.6 |
| 20260502064440 | 29 | 115 | 2.0 | 3.0 | 0.00 | 0.00 | 0.00 | 98 | 1021.6 |
| 20260502063937 | 29 | 111 | 2.0 | 2.0 | 0.00 | 0.00 | 0.00 | 98 | 1021.6 |
| 20260502063435 | 29 | 98 | 0.0 | 2.0 | 0.00 | 0.00 | 0.00 | 98 | 1021.7 |
| 20260502062932 | 29 | 63 | 2.0 | 2.0 | 0.00 | 0.00 | 0.00 | 98 | 1021.6 |
| 20260502062429 | 30 | 97 | 2.0 | 3.0 | 0.00 | 0.00 | 0.00 | 98 | 1021.6 |
| 20260502061928 | 29 | 104 | 2.0 | 3.0 | 0.00 | 0.00 | 0.00 | 97 | 1021.8 |
| 20260502061426 | 29 | 99 | 1.0 | 2.0 | 0.00 | 0.00 | 0.00 | 97 | 1021.5 |
| 20260502060921 | 30 | 109 | 2.0 | 3.0 | 0.00 | 0.00 | 0.00 | 97 | 1021.8 |
| 20260502060417 | 30 | 118 | 2.0 | 3.0 | 0.00 | 0.00 | 0.00 | 97 | 1021.7 |
| 20260502055914 | 30 | 92 | 2.0 | 2.0 | 0.00 | 0.00 | 0.00 | 97 | 1021.8 |
| 20260502055412 | 29 | 100 | 2.0 | 2.0 | 0.00 | 0.00 | 0.00 | 99 | 1021.7 |
| 20260502054912 | 29 | 98 | 2.0 | 2.0 | 0.00 | 0.00 | 0.00 | 98 | 1021.6 |
| 20260502054409 | 30 | 112 | 1.0 | 2.0 | 0.00 | 0.00 | 0.00 | 97 | 1021.6 |
| 20260502053906 | 29 | 115 | 2.0 | 2.0 | 0.00 | 0.00 | 0.00 | 96 | 1021.6 |
| 20260502053405 | 29 | 112 | 1.0 | 2.0 | 0.00 | 0.00 | 0.00 | 96 | 1021.8 |
| 20260502052900 | 30 | 98 | 1.0 | 2.0 | 0.00 | 0.00 | 0.00 | 98 | 1021.8 |
| 20260502052359 | 29 | 107 | 2.0 | 3.0 | 0.00 | 0.00 | 0.00 | 97 | 1021.8 |
| 20260502051856 | 30 | 127 | 2.0 | 3.0 | 0.00 | 0.00 | 0.00 | 97 | 1021.8 |
| 20260502051355 | 30 | 114 | 2.0 | 3.0 | 0.00 | 0.00 | 0.00 | 98 | 1021.7 |
| 20260502050851 | 29 | 97 | 1.0 | 2.0 | 0.00 | 0.00 | 0.00 | 96 | 1021.8 |
| 20260502050347 | 29 | 106 | 1.0 | 2.0 | 0.00 | 0.00 | 0.00 | 96 | 1021.8 |
| 20260502045844 | 30 | 103 | 2.0 | 2.0 | 0.00 | 0.02 | 0.02 | 95 | 1021.8 |
| 20260502045341 | 29 | 111 | 0.0 | 2.0 | 0.00 | 0.02 | 0.02 | 95 | 1021.6 |
| 20260502044838 | 29 | 95 | 1.0 | 2.0 | 0.00 | 0.02 | 0.02 | 94 | 1021.6 |
| 20260502044334 | 29 | 86 | 1.0 | 2.0 | 0.00 | 0.02 | 0.02 | 94 | 1021.6 |
| 20260502043831 | 30 | 102 | 1.0 | 2.0 | 0.00 | 0.02 | 0.02 | 95 | 1021.6 |
| 20260502043329 | 30 | 116 | 2.0 | 3.0 | 0.00 | 0.02 | 0.02 | 94 | 1021.4 |
| 20260502042828 | 29 | 117 | 2.0 | 3.0 | 0.00 | 0.02 | 0.02 | 95 | 1021.4 |
| 20260502042326 | 29 | 110 | 2.0 | 2.0 | 0.00 | 0.02 | 0.02 | 95 | 1021.4 |
| 20260502041823 | 28 | 107 | 1.0 | 2.0 | 0.00 | 0.02 | 0.02 | 94 | 1021.5 |
| 20260502041320 | 29 | 102 | 1.0 | 2.0 | 0.00 | 0.02 | 0.02 | 94 | 1021.5 |
| 20260502040818 | 29 | 99 | 1.0 | 2.0 | 0.00 | 0.02 | 0.02 | 93 | 1021.7 |
| 20260502040315 | 30 | 95 | 1.0 | 2.0 | 0.00 | 0.02 | 0.02 | 93 | 1021.5 |
| 20260502035810 | 30 | 109 | 1.0 | 2.0 | 0.00 | 0.02 | 0.02 | 92 | 1021.8 |
| 20260502035307 | 30 | 112 | 1.0 | 2.0 | 0.00 | 0.02 | 0.02 | 92 | 1021.5 |
| 20260502034804 | 30 | 112 | 2.0 | 2.0 | 0.00 | 0.02 | 0.02 | 91 | 1021.5 |
| 20260502034303 | 30 | 120 | 1.0 | 2.0 | 0.00 | 0.02 | 0.02 | 92 | 1021.6 |
| 20260502033801 | 31 | 129 | 1.0 | 2.0 | 0.00 | 0.02 | 0.02 | 92 | 1021.3 |
| 20260502033258 | 31 | 101 | 1.0 | 2.0 | 0.00 | 0.02 | 0.02 | 90 | 1021.5 |
| 20260502032755 | 31 | 100 | 2.0 | 2.0 | 0.00 | 0.02 | 0.02 | 89 | 1021.4 |